EHI
0 0 0 0 0 0 0 0 0 0 0 0 0 0 0 0 1 2 6 13 26 39 43 34 21 10 4 1 0 0 0 0 1 2 2 2 1 1 0 0 0 0 0 0
0 0 0 0 0 0 0 0 0 0 0 0 0 0 0 0 0 2 5 12 24 38 44 40 27 14 6 4 2 1 0 0 0 1 1 1 1 1 0 0 0 0 0 0
0 0 0 0 0 0 0 0 0 0 0 0 0 0 0 0 0 1 3 8 19 32 43 43 32 18 11 9 7 3 1 0 1 1 1 1 2 2 1 1 0 0 0 0
0 0 0 0 0 0 0 1 1 0 1 2 1 0 0 0 0 0 1 4 11 21 31 35 29 20 15 12 9 6 2 0 1 2 2 2 3 3 3 2 1 0 0 0
0 0 0 0 0 0 1 2 3 2 3 4 3 1 0 0 1 1 1 1 4 9 16 25 28 25 20 15 11 7 2 0 1 2 3 3 4 5 4 2 1 0 0 0
0 0 0 0 0 0 1 3 4 3 3 3 3 1 0 0 1 2 3 3 4 5 13 28 40 39 30 20 15 10 4 2 3 3 3 4 6 7 5 2 1 0 0 1
0 0 0 0 0 2 4 4 3 2 1 1 2 2 1 2 3 4 6 8 11 16 26 44 57 55 44 33 26 19 12 8 7 5 4 5 10 12 8 4 1 0 1 2
1 2 3 2 2 5 7 5 2 0 0 0 1 1 3 6 9 11 11 13 19 31 46 59 68 66 58 48 40 31 23 19 17 13 9 8 12 13 10 5 1 0 1 2
1 3 6 5 3 5 5 3 1 0 0 0 1 4 8 15 20 22 21 20 26 40 57 66 70 69 63 57 49 38 31 28 26 22 17 13 11 10 7 4 1 0 0 1
2 4 6 5 3 2 2 1 0 0 1 2 5 9 16 24 30 33 32 31 34 46 60 66 66 64 61 57 48 38 32 29 26 22 18 16 12 7 4 3 2 1 0 0
4 5 4 3 2 1 1 1 1 1 2 4 7 10 15 23 28 31 33 33 36 45 55 59 59 57 55 51 43 34 29 25 19 14 12 13 11 6 4 3 2 1 0 0
5 5 3 1 1 1 1 1 1 1 3 4 5 6 9 12 15 18 20 22 25 30 37 42 43 45 43 41 37 32 28 21 13 7 6 7 6 4 3 2 1 1 0 0
6 4 1 0 0 0 0 0 0 1 1 2 3 3 4 4 5 6 7 8 9 12 15 19 22 26 28 28 31 31 27 18 8 4 3 2 2 2 1 1 0 0 0 0
6 3 0 0 0 0 0 0 0 0 0 1 1 1 1 1 1 1 1 1 1 2 4 5 8 10 13 17 21 23 20 11 4 2 1 1 0 1 1 1 1 1 1 1
2 1 0 0 0 0 0 0 0 0 0 0 0 0 0 0 0 0 0 0 0 0 1 1 2 3 4 7 10 10 8 4 1 1 0 0 0 0 0 0 0 1 2 1
1 0 0 0 0 0 0 0 0 0 0 0 0 0 0 0 0 0 0 0 0 0 0 0 0 0 0 2 3 3 1 1 0 0 0 0 0 0 0 0 0 0 1 1
1 0 0 0 0 0 0 0 0 0 0 0 0 0 0 0 0 0 0 0 0 0 0 0 0 0 0 0 1 1 0 0 0 0 0 0 0 0 0 0 0 0 0 0
1 0 0 0 0 0 0 0 0 0 0 0 0 0 0 0 0 0 0 0 0 0 0 0 0 0 0 0 0 0 0 0 0 0 0 0 0 0 0 0 0 0 0 0
0 0 0 0 0 0 0 0 0 0 0 0 0 0 0 0 0 0 0 0 0 0 0 0 0 0 0 0 0 0 0 0 0 0 0 0 0 0 0 0 0 0 0 0
0 0 0 0 0 0 0 0 0 0 0 0 0 0 0 0 0 0 0 0 0 0 0 0 0 0 0 0 0 0 0 0 0 0 0 0 0 0 0 0 0 0 0 0
0 0 0 0 0 0 0 0 0 0 0 0 0 0 0 0 0 0 0 0 0 0 0 0 0 0 0 0 0 0 0 0 0 0 0 0 0 0 0 0 0 0 0 0
0 0 0 0 0 0 0 0 0 0 0 0 0 0 0 0 0 0 0 0 0 0 0 0 0 0 0 0 0 0 0 0 0 0 0 0 0 0 0 0 0 0 0 0
0 0 0 0 0 0 0 0 0 0 0 0 0 0 0 0 0 0 0 0 0 0 0 0 0 0 0 0 0 0 0 0 0 0 0 0 0 0 0 0 0 0 0 0
0 0 0 0 0 0 0 0 0 0 0 0 0 0 0 0 0 0 0 0 0 0 0 0 0 0 0 0 0 0 0 0 0 0 0 0 0 0 0 0 0 0 0 0
0 0 0 0 0 0 0 0 0 0 0 0 0 0 0 0 0 0 0 0 0 0 0 0 0 0 0 0 0 0 0 0 0 0 0 0 0 0 0 0 0 0 0 0
0 0 0 0 0 0 0 0 0 0 0 0 0 0 0 0 0 0 0 0 0 0 0 0 0 0 0 0 0 0 0 0 0 0 0 0 0 0 0 0 0 0 0 0
0 0 0 0 0 0 0 0 0 0 0 0 0 0 0 0 0 0 0 0 0 0 0 0 0 0 0 0 0 0 0 0 0 0 0 0 0 0 0 0 0 0 0 0
Wind_Speed
11 7 11 14 16 12 11 9 9 7 5 3 3 3 3 5 6 6 8 9 8 8 8 7 6 6 6 5 4 4 4 4 4 4 4 3 4 4 4 4 6 5 5 5
14 13 13 12 12 13 11 9 9 8 4 4 5 3 2 2 4 5 7 8 9 9 10 9 8 7 7 6 6 5 5 4 4 3 3 4 4 5 5 4 5 5 6 6
13 15 13 11 11 10 8 8 7 5 0 2 2 2 1 1 3 5 6 8 9 10 10 10 9 8 7 7 6 6 6 5 5 5 5 4 5 4 4 4 5 5 5 6
13 15 16 7 6 7 7 6 4 2 0 1 1 2 3 3 3 4 5 7 8 9 10 10 10 10 8 8 7 7 7 7 6 5 5 4 4 4 4 4 4 5 6 6
11 14 13 7 3 4 6 7 8 4 4 4 4 2 2 4 3 3 4 5 6 8 10 11 11 11 10 9 9 8 8 7 7 6 5 4 4 4 4 4 5 6 7 7
12 14 13 3 4 2 3 3 9 10 9 10 6 4 3 3 2 2 2 3 5 7 7 9 10 10 11 10 9 9 8 7 6 5 4 4 4 4 5 4 6 7 7 6
13 12 5 5 2 3 2 1 7 7 6 6 5 5 5 3 1 1 1 2 4 5 5 7 8 9 9 9 9 8 7 6 5 5 5 5 6 5 5 6 7 7 7 7
8 8 3 9 5 4 3 4 6 6 5 6 5 6 6 5 3 1 0 1 2 3 4 6 7 7 7 7 5 5 5 5 5 5 6 6 5 5 5 6 7 8 8 9
2 1 3 4 4 2 2 3 5 7 7 7 7 7 7 6 6 4 2 1 1 2 3 5 6 6 7 6 5 5 5 5 5 5 5 5 5 7 7 7 8 8 7 6
3 6 6 5 6 3 2 4 7 8 10 11 10 10 11 11 10 8 7 5 3 1 1 3 4 6 6 5 6 6 6 6 6 6 7 7 7 7 8 7 7 5 5 4
1 6 7 7 5 4 6 8 11 11 13 13 12 13 13 11 11 10 10 9 8 6 3 1 1 2 4 5 5 6 7 6 7 8 9 8 8 8 9 7 7 6 5 5
2 4 4 6 4 5 8 9 11 12 13 14 14 13 13 11 11 11 11 9 9 9 7 5 3 1 2 3 4 5 6 7 7 8 8 8 7 8 14 14 13 14 13 10
5 5 8 7 6 6 7 9 10 11 11 11 12 12 12 11 10 10 11 11 10 9 8 6 5 3 2 3 4 5 7 7 7 8 8 7 7 7 6 8 13 14 15 16
7 6 7 7 8 8 8 9 10 11 11 11 11 10 10 10 10 10 10 10 10 10 9 8 7 7 7 6 5 6 8 9 9 8 9 9 7 7 6 6 5 5 11 17
5 6 8 9 8 9 9 9 9 9 9 10 9 10 10 9 9 9 9 10 9 9 9 9 9 8 8 9 8 8 9 8 8 9 9 8 7 7 7 7 6 6 4 6
8 9 10 9 9 8 9 9 8 8 9 9 9 9 9 9 9 9 9 9 10 9 9 9 8 9 10 10 10 9 9 12 11 9 10 9 8 7 7 6 6 6 5 5
8 8 8 7 7 7 7 7 7 8 9 9 9 9 9 9 9 9 9 10 10 9 8 7 8 9 10 10 10 10 10 11 13 11 9 9 8 8 7 6 5 5 5 2
12 11 9 7 6 5 6 6 7 7 7 9 10 10 9 9 9 9 10 10 9 9 8 7 8 9 10 9 9 9 10 11 11 11 9 8 8 7 7 6 6 6 5 3
8 7 5 3 3 4 5 6 7 8 8 9 9 9 9 9 9 9 9 10 10 9 7 8 10 11 10 8 10 9 11 12 12 11 10 10 9 8 7 6 6 6 5 4
4 3 2 3 4 5 7 8 8 8 9 9 9 9 9 9 9 10 9 9 7 6 7 8 9 10 9 8 11 11 13 14 13 12 11 10 9 7 6 6 6 5 5 3
1 3 4 6 7 8 9 9 10 10 10 10 9 9 9 9 10 10 9 9 5 4 7 8 7 6 8 10 13 13 13 12 12 11 11 10 8 7 6 6 5 5 4 2
4 6 7 9 9 9 9 10 10 11 10 9 10 11 11 10 11 9 8 6 6 3 6 8 8 8 10 12 12 12 12 11 10 9 9 9 8 7 7 6 4 4 3 2
5 7 8 9 10 10 11 11 11 10 10 10 11 11 11 9 9 9 8 5 6 5 7 7 7 8 11 11 10 10 10 10 10 9 9 8 8 7 6 7 5 5 4 3
7 8 9 10 10 11 11 11 10 8 10 11 11 9 8 8 7 7 6 6 6 6 7 5 5 8 10 8 8 8 8 8 8 9 9 8 7 7 7 6 6 5 4 4
9 10 10 10 10 9 9 10 11 10 10 8 10 10 8 7 8 8 8 9 7 8 7 6 7 8 8 7 7 7 7 7 8 8 8 7 7 7 7 6 5 5 4 5
9 9 8 8 8 8 9 9 8 8 8 9 9 9 8 8 9 8 6 9 10 8 7 6 8 8 8 8 8 8 7 7 7 7 7 7 7 7 6 7 8 6 5 5
9 9 6 7 7 7 7 8 8 9 9 9 9 9 9 9 8 8 8 7 7 7 7 7 7 8 7 7 7 7 7 7 6 7 7 7 6 6 7 8 6 6 6 6
Wind_Direction
289 253 210 230 254 264 266 272 281 281 278 250 177 163 154 162 164 167 163 165 166 155 153 159 162 164 175 185 181 186 188 206 211 213 221 233 244 252 261 267 277 280 284 282
290 275 262 256 260 261 265 270 272 279 295 65 85 95 117 145 168 172 173 177 176 170 167 172 176 179 182 187 184 176 194 219 221 220 233 240 244 246 249 257 269 273 274 280
286 292 290 279 286 285 290 286 281 279 336 84 121 116 140 197 200 182 186 187 181 178 175 174 179 182 186 185 184 183 192 212 220 219 230 237 253 263 270 274 274 272 273 275
279 283 278 280 311 297 274 268 279 281 220 130 87 152 200 221 224 187 190 192 182 179 174 175 179 182 186 185 185 193 199 209 215 219 232 235 243 256 262 267 271 274 272 273
272 276 275 279 314 325 341 340 349 15 17 26 37 331 244 175 172 170 197 184 173 182 183 177 181 179 180 191 189 198 205 207 212 217 226 234 247 255 262 265 268 270 271 267
262 270 283 325 72 48 351 321 9 34 29 9 6 338 9 93 150 189 196 175 175 187 183 170 174 173 178 193 196 203 209 204 205 206 218 233 243 251 259 261 266 269 268 267
260 268 285 30 110 171 203 37 358 21 17 350 13 338 318 306 154 159 168 184 178 182 180 169 166 169 183 196 202 203 203 199 201 204 212 224 233 235 243 256 263 267 273 271
261 274 306 8 11 44 23 350 334 351 356 352 346 309 318 337 1 45 318 216 197 179 177 160 162 172 190 204 204 199 199 203 207 211 230 238 227 233 242 253 262 261 259 258
227 192 116 73 62 27 356 340 351 352 355 349 337 338 356 6 12 20 23 331 243 187 175 161 162 174 199 204 200 204 205 212 218 222 224 233 240 244 246 245 250 257 260 262
27 90 121 133 130 114 53 15 11 17 17 18 13 11 20 25 22 18 13 6 -0 357 179 165 172 189 201 196 194 204 213 218 222 228 233 230 231 238 245 249 252 256 268 280
98 124 117 77 63 61 57 44 39 37 38 35 31 31 32 33 26 20 19 15 11 6 359 8 180 199 208 201 198 212 222 228 233 240 245 241 232 233 239 244 246 248 262 273
96 122 112 112 86 64 70 66 57 48 45 41 36 35 36 33 27 23 20 18 14 6 0 355 346 280 246 222 217 227 238 240 245 248 249 246 241 241 231 231 234 224 225 235
71 77 96 104 89 75 77 73 70 62 52 45 38 33 32 30 25 21 18 15 10 1 355 353 348 332 306 273 246 243 253 260 263 265 265 259 255 252 254 241 233 230 230 233
87 87 96 84 74 60 59 62 64 58 50 43 35 28 25 22 19 17 12 8 3 356 355 355 351 349 344 331 309 284 274 270 265 263 264 264 262 260 256 260 256 241 230 230
101 109 105 89 75 64 51 49 50 45 36 30 26 18 14 12 9 9 6 2 359 356 0 355 351 353 349 341 330 312 297 285 276 271 267 265 262 262 261 261 261 261 256 227
105 98 96 87 69 54 45 38 31 24 19 14 11 3 359 358 359 359 360 359 355 354 354 350 353 356 350 343 330 315 301 291 288 283 277 271 265 262 260 256 257 256 258 264
116 105 90 78 64 47 33 24 14 7 2 358 353 349 350 351 349 353 352 349 344 339 339 347 3 353 342 333 323 315 310 307 303 292 281 277 273 271 272 266 263 262 267 268
77 75 70 58 38 21 7 1 356 351 348 344 342 344 345 344 343 343 340 337 331 324 330 356 4 342 330 329 328 320 313 307 305 302 297 288 281 275 272 274 277 277 277 247
92 88 78 52 9 345 342 340 340 342 341 336 334 333 334 334 335 334 331 326 318 315 340 351 345 328 319 343 347 323 314 311 308 304 298 288 278 272 267 267 266 264 266 262
89 72 24 335 330 334 331 332 334 333 331 327 324 324 323 324 324 320 317 308 309 327 333 332 324 315 323 353 342 320 311 306 303 302 298 297 295 291 288 284 281 275 263 255
39 346 334 336 340 335 333 335 329 321 317 317 317 316 316 316 313 307 301 304 319 340 321 312 310 331 343 338 320 314 312 313 314 311 308 306 306 309 307 301 297 292 281 276
351 339 334 333 330 326 326 321 313 309 311 313 315 313 310 304 299 297 295 300 316 346 319 321 334 353 342 323 317 315 316 321 325 326 326 326 325 326 324 316 314 311 311 317
331 327 323 320 317 315 313 309 305 307 312 312 305 298 294 294 296 299 305 321 335 348 329 336 348 342 324 317 319 320 326 331 330 327 327 327 330 334 333 331 332 331 336 343
318 313 313 311 309 305 301 302 305 304 296 290 288 291 297 299 303 312 327 342 357 349 336 348 340 328 314 318 326 331 335 335 333 330 330 334 336 338 338 336 339 341 345 352
301 302 299 299 298 299 308 307 301 296 298 307 314 319 319 323 325 329 333 335 350 346 340 349 347 334 329 339 342 343 343 344 339 332 331 333 336 340 339 338 345 351 357 358
289 287 291 294 293 291 292 297 307 319 322 322 324 326 328 329 329 333 336 342 350 353 351 353 356 354 354 355 355 353 349 343 340 337 337 336 340 346 347 347 352 359 359 360
289 288 283 283 296 306 316 321 322 323 324 326 328 328 327 331 336 340 345 348 351 359 6 6 6 4 3 2 358 356 353 347 345 345 343 347 351 352 350 350 355 358 1 6